Location: Dreilärchen
(47.9312°N, 8.6113°E)
Time: 00:02:04
(UTC+00:00)

COSMOS 2455 - Pass Details

Date: 26 May 2022
Orbit: 901 x 908 km, 67.1° (Epoch: 02 July)

Event Time Altitude Azimuth Distance (km) Brightness Sun altitude
Exits shadow 02:04:51 15° 207° (SSW) 2,219 4.2 -12.0°
Maximum altitude 02:09:52 82° 121° (ESE) 923 2.9 -11.5°
Drops below altitude 10° 02:15:54 10° 36° (NE) 2,601 6.8 -10.8°
Sets 02:18:25 0° 35° (NE) 3,547 8.1 -10.5°
